Phoenix, AZ

3:44 AM MST on October 21, 2017 (GMT -0700)
Phoenix Sky Harbor International

Weather History for KPHX - August, 2013

Change the Weather History Date:

Wednesday, August 7, 2013

  Actual Average Record
Temperature  
Mean Temperature 91 °F 94 °F  
Max Temperature 102 °F 105 °F 112 °F (1905)
Min Temperature 79 °F 83 °F 66 °F (1928)
Degree Days  
Heating Degree Days 0 0  
Month to date heating degree days 0 0  
Since 1 June heating degree days 0 0  
Since 1 July heating degree days 0 0  
Cooling Degree Days 26 29  
Month to date cooling degree days 207 203  
Year to date cooling degree days 3166 2787  
Since 1 June cooling degree days 2068 1901  
Growing Degree Days 38 (Base 50)    
Moisture  
Dew Point 57 °F    
Average Humidity 41    
Maximum Humidity 67    
Minimum Humidity 15    
Precipitation  
Precipitation 0.00 in 0.04 in 0.87 in (1939)
Month to date precipitation 0.01 0.25  
Year to date precipitation 4.39 4.53  
Snow  
Snow 0.00 in - - ()
Month to date snowfall 0.0  
Year to date snowfall 0.0  
Since 1 July snowfall 0.0  
Snow Depth 0.00 in    
Sea Level Pressure  
Sea Level Pressure 29.85 in    
Wind  
Wind Speed 7 mph (South)    
Max Wind Speed 15 mph    
Max Gust Speed 21 mph    
Visibility 10 miles    
Events      
T = Trace of Precipitation, MM = Missing Value Source: NWS Daily Summary

Daily Weather History Graph

Daily Weather History Graph

Search for Another Location

Airport or City:

Trip Planner

Search our weather history database for the weather conditions in past years. The results will help you decide how hot, cold, wet, or windy it might be!

Date:

Astronomy

Aug. 07, 2013 Rise Set
Actual Time 5:45 AM MST 7:21 PM MST
Civil Twilight 5:18 AM MST 7:48 PM MST
Nautical Twilight 4:46 AM MST 8:20 PM MST
Astronomical Twilight 4:12 AM MST 8:54 PM MST
Moon 6:31 AM MST (8/7) 7:38 PM MST (8/7)
Length of Visible Light 14h 30m
Length of Day
13h 36m
New Moon, 1% of the Moon is Illuminated
Aug 7
New Moon
Aug 14
First Quarter
Aug 20
Full
Aug 28
Last Quarter
Sep 5
New

Hourly Weather History & Observations

Time (MST) Temp. Heat Index Dew Point Humidity Pressure Visibility Wind Dir Wind Speed Gust Speed Precip Events Conditions
12:51 AM 81.0 °F 82.7 °F 64.9 °F 58% 29.89 in 10.0 mi ESE 9.2 mph - N/A   Mostly Cloudy
1:51 AM 80.1 °F 82.1 °F 66.0 °F 62% 29.88 in 10.0 mi East 8.1 mph - N/A   Mostly Cloudy
2:51 AM 80.1 °F 82.3 °F 66.9 °F 64% 29.89 in 10.0 mi ESE 5.8 mph - N/A   Scattered Clouds
3:51 AM 80.1 °F 82.1 °F 66.0 °F 62% 29.89 in 10.0 mi East 8.1 mph - N/A   Mostly Cloudy
4:51 AM 80.1 °F 82.1 °F 66.0 °F 62% 29.90 in 10.0 mi ESE 6.9 mph - N/A   Partly Cloudy
5:51 AM 79.0 °F - 66.0 °F 64% 29.90 in 10.0 mi SE 6.9 mph - N/A   Partly Cloudy
6:51 AM 80.1 °F 81.9 °F 64.9 °F 60% 29.91 in 10.0 mi SE 8.1 mph - N/A   Partly Cloudy
7:51 AM 82.0 °F 83.1 °F 63.0 °F 52% 29.93 in 10.0 mi ESE 8.1 mph - N/A   Partly Cloudy
8:51 AM 84.9 °F 85.9 °F 63.0 °F 48% 29.93 in 10.0 mi East 6.9 mph - N/A   Clear
9:51 AM 89.1 °F 89.3 °F 62.1 °F 40% 29.93 in 10.0 mi Variable 4.6 mph - N/A   Partly Cloudy
10:51 AM 91.9 °F 91.5 °F 60.1 °F 34% 29.91 in 10.0 mi Variable 4.6 mph - N/A   Partly Cloudy
11:51 AM 93.0 °F 92.7 °F 60.1 °F 33% 29.89 in 10.0 mi Calm Calm - N/A   Partly Cloudy
12:51 PM 96.1 °F 94.1 °F 55.0 °F 25% 29.87 in 10.0 mi NNW 3.5 mph - N/A   Partly Cloudy
1:51 PM 98.1 °F 96.4 °F 55.0 °F 24% 29.85 in 10.0 mi SW 5.8 mph - N/A   Partly Cloudy
2:51 PM 99.0 °F 97.3 °F 55.0 °F 23% 29.82 in 10.0 mi Variable 4.6 mph - N/A   Partly Cloudy
3:51 PM 100.0 °F 97.9 °F 54.0 °F 21% 29.80 in 10.0 mi NW 11.5 mph - N/A   Partly Cloudy
4:51 PM 100.9 °F - 51.1 °F 19% 29.77 in 10.0 mi West 10.4 mph - N/A   Partly Cloudy
5:51 PM 100.9 °F - 48.9 °F 17% 29.76 in 10.0 mi SSW 9.2 mph - N/A   Partly Cloudy
6:51 PM 100.0 °F - 45.0 °F 15% 29.76 in 10.0 mi SW 8.1 mph - N/A   Partly Cloudy
7:51 PM 98.1 °F - 46.9 °F 18% 29.77 in 10.0 mi SW 4.6 mph - N/A   Partly Cloudy
8:51 PM 96.1 °F - 48.9 °F 20% 29.78 in 10.0 mi WSW 4.6 mph - N/A   Partly Cloudy
9:51 PM 93.0 °F - 52.0 °F 25% 29.78 in 10.0 mi SSW 4.6 mph - N/A   Partly Cloudy
10:51 PM 91.9 °F - 46.0 °F 21% 29.78 in 10.0 mi WSW 4.6 mph - N/A   Partly Cloudy
11:51 PM 91.9 °F - 43.0 °F 18% 29.78 in 10.0 mi Variable 3.5 mph - N/A   Partly Cloudy